Time,TemperatureF,DewpointF,PressureIn,WindDirection,WindDirectionDegrees,WindSpeedMPH,WindSpeedGustMPH,Humidity,HourlyPrecipIn,Conditions,Clouds,dailyrainin,SoftwareType,DateUTC
2013-03-27 00:00:00,42.1,26.2,29.81,NNW,338,2.7,4.0,53,0.00,CLR,,0.00,WeatherDisplay:10.37,2013-03-27 04:00:00,
2013-03-27 00:01:00,42.1,26.2,29.81,WNW,292,3.5,3.5,53,0.00,CLR,,0.00,WeatherDisplay:10.37,2013-03-27 04:01:00,
2013-03-27 00:02:00,42.1,26.2,29.81,West,270,3.5,3.5,53,0.00,CLR,,0.00,WeatherDisplay:10.37,2013-03-27 04:02:00,
2013-03-27 00:07:00,42.1,26.2,29.81,NW,315,4.6,4.6,53,0.00,CLR,,0.00,WeatherDisplay:10.37,2013-03-27 04:07:00,
2013-03-27 00:12:00,42.1,26.2,29.81,WNW,292,2.7,2.7,53,0.00,CLR,,0.00,WeatherDisplay:10.37,2013-03-27 04:12:00,
2013-03-27 00:17:00,41.9,26.4,29.82,NNW,338,4.6,4.6,54,0.00,CLR,,0.00,WeatherDisplay:10.37,2013-03-27 04:17:00,
2013-03-27 00:22:00,41.9,26.4,29.82,NNW,338,2.3,2.3,54,0.00,CLR,,0.00,WeatherDisplay:10.37,2013-03-27 04:22:00,
2013-03-27 00:27:00,41.5,26.1,29.81,NW,315,2.3,2.3,54,0.00,CLR,,0.00,WeatherDisplay:10.37,2013-03-27 04:27:00,
2013-03-27 00:33:00,41.2,26.2,29.81,West,270,2.2,2.2,55,0.00,CLR,,0.00,WeatherDisplay:10.37,2013-03-27 04:33:00,
2013-03-27 00:38:00,41.0,26.1,29.82,NW,315,2.3,2.6,55,0.00,CLR,,0.00,WeatherDisplay:10.37,2013-03-27 04:38:00,
2013-03-27 00:43:00,41.0,26.5,29.82,NW,315,4.2,4.2,56,0.00,CLR,,0.00,WeatherDisplay:10.37,2013-03-27 04:43:00,
2013-03-27 00:48:00,41.2,26.2,29.82,NW,315,5.8,5.8,55,0.00,CLR,,0.00,WeatherDisplay:10.37,2013-03-27 04:48:00,
2013-03-27 00:53:00,41.4,26.4,29.82,WNW,292,1.7,1.7,55,0.00,CLR,,0.00,WeatherDisplay:10.37,2013-03-27 04:53:00,
2013-03-27 00:58:00,41.4,26.4,29.82,WNW,292,4.6,4.6,55,0.00,CLR,,0.00,WeatherDisplay:10.37,2013-03-27 04:58:00,
2013-03-27 01:03:00,41.4,26.4,29.82,NNW,338,3.5,3.5,55,0.00,CLR,,0.00,WeatherDisplay:10.37,2013-03-27 05:03:00,
2013-03-27 01:08:00,41.2,26.2,29.82,NNW,338,3.7,3.7,55,0.00,CLR,,0.00,WeatherDisplay:10.37,2013-03-27 05:08:00,
2013-03-27 01:13:00,41.2,26.7,29.82,WNW,292,5.8,5.8,56,0.00,CLR,,0.00,WeatherDisplay:10.37,2013-03-27 05:13:00,
2013-03-27 01:19:00,41.2,26.7,29.82,WNW,292,3.7,3.7,56,0.00,CLR,,0.00,WeatherDisplay:10.37,2013-03-27 05:19:00,
2013-03-27 01:24:00,41.2,26.7,29.82,West,270,4.6,4.6,56,0.00,CLR,,0.00,WeatherDisplay:10.37,2013-03-27 05:24:00,
2013-03-27 01:29:00,41.2,27.1,29.82,NNE,22,4.6,4.6,57,0.00,CLR,,0.00,WeatherDisplay:10.37,2013-03-27 05:29:00,
2013-03-27 01:34:00,41.2,27.1,29.82,NNW,338,5.8,5.8,57,0.00,CLR,,0.00,WeatherDisplay:10.37,2013-03-27 05:34:00,
2013-03-27 01:39:00,41.2,26.7,29.82,West,270,4.6,4.6,56,0.00,CLR,,0.00,WeatherDisplay:10.37,2013-03-27 05:39:00,
2013-03-27 01:44:00,41.4,26.4,29.82,West,270,6.9,6.9,55,0.00,CLR,,0.00,WeatherDisplay:10.37,2013-03-27 05:44:00,
2013-03-27 01:49:00,41.4,26.4,29.82,West,270,6.8,6.8,55,0.00,CLR,,0.00,WeatherDisplay:10.37,2013-03-27 05:49:00,
2013-03-27 01:54:00,41.2,26.2,29.82,WNW,292,5.8,5.8,55,0.00,CLR,,0.00,WeatherDisplay:10.37,2013-03-27 05:54:00,
2013-03-27 01:59:00,40.8,26.3,29.82,NNW,338,8.3,8.3,56,0.00,CLR,,0.00,WeatherDisplay:10.37,2013-03-27 05:59:00,
2013-03-27 02:04:00,40.8,26.3,29.82,NW,315,3.7,3.7,56,0.00,CLR,,0.00,WeatherDisplay:10.37,2013-03-27 06:04:00,
2013-03-27 02:09:00,40.6,26.1,29.82,NNW,338,5.8,5.8,56,0.00,CLR,,0.00,WeatherDisplay:10.37,2013-03-27 06:09:00,
2013-03-27 02:15:00,40.6,26.1,29.83,North,360,5.8,5.8,56,0.00,CLR,,0.00,WeatherDisplay:10.37,2013-03-27 06:15:00,
2013-03-27 02:20:00,40.5,26.0,29.83,WNW,292,6.9,6.9,56,0.00,CLR,,0.00,WeatherDisplay:10.37,2013-03-27 06:20:00,
2013-03-27 02:25:00,40.5,26.0,29.82,West,270,4.6,4.6,56,0.00,CLR,,0.00,WeatherDisplay:10.37,2013-03-27 06:25:00,
2013-03-27 02:30:00,40.3,25.8,29.82,NNW,338,4.7,4.7,56,0.00,CLR,,0.00,WeatherDisplay:10.37,2013-03-27 06:30:00,
2013-03-27 02:35:00,40.1,25.6,29.82,West,270,5.8,5.8,56,0.00,CLR,,0.00,WeatherDisplay:10.37,2013-03-27 06:35:00,
2013-03-27 02:40:00,40.1,25.6,29.82,West,270,5.8,5.8,56,0.00,CLR,,0.00,WeatherDisplay:10.37,2013-03-27 06:40:00,
2013-03-27 02:45:00,39.9,25.5,29.82,West,270,5.8,5.8,56,0.00,CLR,,0.00,WeatherDisplay:10.37,2013-03-27 06:45:00,
2013-03-27 02:50:00,39.9,25.0,29.82,WNW,292,8.1,8.1,55,0.00,CLR,,0.00,WeatherDisplay:10.37,2013-03-27 06:50:00,
2013-03-27 02:55:00,39.9,25.0,29.82,ENE,68,9.2,9.2,55,0.00,CLR,,0.00,WeatherDisplay:10.37,2013-03-27 06:55:00,
2013-03-27 03:00:00,39.9,25.0,29.82,NNW,338,5.8,5.8,55,0.00,CLR,,0.00,WeatherDisplay:10.37,2013-03-27 07:00:00,
2013-03-27 03:06:00,39.7,24.8,29.82,WNW,292,4.6,4.6,55,0.00,CLR,,0.00,WeatherDisplay:10.37,2013-03-27 07:06:00,
2013-03-27 03:11:00,39.6,24.7,29.82,NW,315,5.8,5.8,55,0.00,CLR,,0.00,WeatherDisplay:10.37,2013-03-27 07:11:00,
2013-03-27 03:16:00,39.6,24.7,29.82,West,270,8.1,8.1,55,0.00,CLR,,0.00,WeatherDisplay:10.37,2013-03-27 07:16:00,
2013-03-27 03:21:00,39.4,24.6,29.82,North,360,5.8,5.8,55,0.00,CLR,,0.00,WeatherDisplay:10.37,2013-03-27 07:21:00,
2013-03-27 03:27:00,39.4,24.6,29.81,NW,315,5.8,5.8,55,0.00,CLR,,0.00,WeatherDisplay:10.37,2013-03-27 07:27:00,
2013-03-27 03:32:00,39.4,24.6,29.81,NW,315,8.1,8.1,55,0.00,CLR,,0.00,WeatherDisplay:10.37,2013-03-27 07:32:00,
2013-03-27 03:37:00,39.2,24.4,29.81,NNW,338,5.8,5.8,55,0.00,CLR,,0.00,WeatherDisplay:10.37,2013-03-27 07:37:00,
2013-03-27 03:42:00,39.0,24.2,29.81,West,270,4.6,4.6,55,0.00,CLR,,0.00,WeatherDisplay:10.37,2013-03-27 07:42:00,
2013-03-27 03:47:00,39.0,24.2,29.81,West,270,3.7,3.7,55,0.00,CLR,,0.00,WeatherDisplay:10.37,2013-03-27 07:47:00,
2013-03-27 03:52:00,39.0,24.2,29.81,West,270,3.7,3.7,55,0.00,CLR,,0.00,WeatherDisplay:10.37,2013-03-27 07:52:00,
2013-03-27 03:57:00,39.0,24.2,29.81,West,270,3.7,3.7,55,0.00,CLR,,0.00,WeatherDisplay:10.37,2013-03-27 07:57:00,
2013-03-27 04:03:00,39.0,24.2,29.81,West,270,3.7,3.7,55,0.00,CLR,,0.00,WeatherDisplay:10.37,2013-03-27 08:03:00,
2013-03-27 04:08:00,39.0,24.2,29.81,West,270,3.7,3.7,55,0.00,CLR,,0.00,WeatherDisplay:10.37,2013-03-27 08:08:00,
2013-03-27 04:13:00,39.0,24.2,29.81,West,270,3.7,3.7,55,0.00,CLR,,0.00,WeatherDisplay:10.37,2013-03-27 08:13:00,
2013-03-27 04:18:00,39.0,24.2,29.81,West,270,3.7,3.7,55,0.00,CLR,,0.00,WeatherDisplay:10.37,2013-03-27 08:18:00,
2013-03-27 04:23:00,39.0,24.2,29.81,West,270,3.7,3.7,55,0.00,CLR,,0.00,WeatherDisplay:10.37,2013-03-27 08:23:00,
2013-03-27 04:28:00,39.0,24.2,29.81,West,270,3.7,3.7,55,0.00,CLR,,0.00,WeatherDisplay:10.37,2013-03-27 08:28:00,
2013-03-27 04:33:00,39.0,24.2,29.81,West,270,3.7,3.7,55,0.00,CLR,,0.00,WeatherDisplay:10.37,2013-03-27 08:33:00,
2013-03-27 04:38:00,39.0,24.2,29.81,West,270,3.7,3.7,55,0.00,CLR,,0.00,WeatherDisplay:10.37,2013-03-27 08:38:00,
2013-03-27 04:43:00,39.0,24.2,29.81,West,270,3.7,3.7,55,0.00,CLR,,0.00,WeatherDisplay:10.37,2013-03-27 08:43:00,
2013-03-27 04:48:00,39.0,24.2,29.81,West,270,3.7,3.7,55,0.00,CLR,,0.00,WeatherDisplay:10.37,2013-03-27 08:48:00,
2013-03-27 04:54:00,39.0,24.2,29.82,West,270,3.7,3.7,55,0.00,CLR,,0.00,WeatherDisplay:10.37,2013-03-27 08:54:00,
2013-03-27 04:59:00,39.0,24.2,29.82,West,270,3.7,3.7,55,0.00,CLR,,0.00,WeatherDisplay:10.37,2013-03-27 08:59:00,
2013-03-27 05:04:00,39.0,24.2,29.82,West,270,3.7,3.7,55,0.00,CLR,,0.00,WeatherDisplay:10.37,2013-03-27 09:04:00,
2013-03-27 05:09:00,39.0,24.2,29.82,West,270,3.7,3.7,55,0.00,CLR,,0.00,WeatherDisplay:10.37,2013-03-27 09:09:00,
2013-03-27 05:14:00,39.0,24.2,29.82,West,270,3.7,3.7,55,0.00,CLR,,0.00,WeatherDisplay:10.37,2013-03-27 09:14:00,
2013-03-27 05:19:00,39.0,24.2,29.82,West,270,3.7,3.7,55,0.00,CLR,,0.00,WeatherDisplay:10.37,2013-03-27 09:19:00,
2013-03-27 05:24:00,39.0,24.2,29.82,West,270,3.7,3.7,55,0.00,CLR,,0.00,WeatherDisplay:10.37,2013-03-27 09:24:00,
2013-03-27 05:29:00,39.0,24.2,29.82,West,270,3.7,3.7,55,0.00,CLR,,0.00,WeatherDisplay:10.37,2013-03-27 09:29:00,
2013-03-27 05:34:00,39.0,24.2,29.82,West,270,3.7,3.7,55,0.00,CLR,,0.00,WeatherDisplay:10.37,2013-03-27 09:34:00,
2013-03-27 05:39:00,39.0,24.2,29.83,West,270,3.7,3.7,55,0.00,CLR,,0.00,WeatherDisplay:10.37,2013-03-27 09:39:00,
2013-03-27 05:45:00,39.0,24.2,29.83,West,270,3.7,3.7,55,0.00,CLR,,0.00,WeatherDisplay:10.37,2013-03-27 09:45:00,
2013-03-27 05:50:00,39.0,24.2,29.83,West,270,3.7,3.7,55,0.00,CLR,,0.00,WeatherDisplay:10.37,2013-03-27 09:50:00,
2013-03-27 05:55:00,39.0,24.2,29.83,West,270,3.7,3.7,55,0.00,CLR,,0.00,WeatherDisplay:10.37,2013-03-27 09:55:00,
2013-03-27 06:00:00,39.0,24.2,29.83,West,270,3.7,3.7,55,0.00,CLR,,0.00,WeatherDisplay:10.37,2013-03-27 10:00:00,
2013-03-27 06:05:00,39.0,24.2,29.83,West,270,3.7,3.7,55,0.00,CLR,,0.00,WeatherDisplay:10.37,2013-03-27 10:05:00,
2013-03-27 06:10:00,39.0,24.2,29.83,West,270,3.7,3.7,55,0.00,CLR,,0.00,WeatherDisplay:10.37,2013-03-27 10:10:00,
2013-03-27 06:15:00,39.0,24.2,29.84,West,270,3.7,3.7,55,0.00,CLR,,0.00,WeatherDisplay:10.37,2013-03-27 10:15:00,
2013-03-27 06:20:00,39.0,24.2,29.84,West,270,3.7,3.7,55,0.00,CLR,,0.00,WeatherDisplay:10.37,2013-03-27 10:20:00,
2013-03-27 06:25:00,39.0,24.2,29.85,West,270,3.7,3.7,55,0.00,CLR,,0.00,WeatherDisplay:10.37,2013-03-27 10:25:00,
2013-03-27 06:30:00,39.0,24.2,29.85,West,270,3.7,3.7,55,0.00,CLR,,0.00,WeatherDisplay:10.37,2013-03-27 10:30:00,
2013-03-27 06:36:00,39.0,24.2,29.85,West,270,3.7,3.7,55,0.00,CLR,,0.00,WeatherDisplay:10.37,2013-03-27 10:36:00,
2013-03-27 06:41:00,39.0,24.2,29.85,West,270,3.7,3.7,55,0.00,CLR,,0.00,WeatherDisplay:10.37,2013-03-27 10:41:00,
2013-03-27 06:46:00,39.0,24.2,29.85,West,270,3.7,3.7,55,0.00,CLR,,0.00,WeatherDisplay:10.37,2013-03-27 10:46:00,
2013-03-27 06:51:00,39.0,24.2,29.85,West,270,3.7,3.7,55,0.00,CLR,,0.00,WeatherDisplay:10.37,2013-03-27 10:51:00,
2013-03-27 06:56:00,39.0,24.2,29.85,West,270,3.7,3.7,55,0.00,CLR,,0.00,WeatherDisplay:10.37,2013-03-27 10:56:00,
2013-03-27 07:01:00,39.0,24.2,29.85,West,270,3.7,3.7,55,0.00,CLR,,0.00,WeatherDisplay:10.37,2013-03-27 11:01:00,
2013-03-27 07:06:00,39.0,24.2,29.85,West,270,3.7,3.7,55,0.00,CLR,,0.00,WeatherDisplay:10.37,2013-03-27 11:06:00,
2013-03-27 07:12:00,39.0,24.2,29.85,West,270,3.7,3.7,55,0.00,CLR,,0.00,WeatherDisplay:10.37,2013-03-27 11:12:00,
2013-03-27 07:17:00,39.0,24.2,29.85,West,270,3.7,3.7,55,0.00,CLR,,0.00,WeatherDisplay:10.37,2013-03-27 11:17:00,
2013-03-27 07:22:00,39.0,24.2,29.85,West,270,3.7,3.7,55,0.00,CLR,,0.00,WeatherDisplay:10.37,2013-03-27 11:22:00,
2013-03-27 07:27:00,39.0,24.2,29.85,West,270,3.7,3.7,55,0.00,CLR,,0.00,WeatherDisplay:10.37,2013-03-27 11:27:00,
2013-03-27 07:32:00,39.0,24.2,29.85,West,270,3.7,3.7,55,0.00,CLR,,0.00,WeatherDisplay:10.37,2013-03-27 11:32:00,
2013-03-27 07:37:00,39.0,24.2,29.85,West,270,3.7,3.7,55,0.00,CLR,,0.00,WeatherDisplay:10.37,2013-03-27 11:37:00,
2013-03-27 07:42:00,39.0,24.2,29.85,West,270,3.7,3.7,55,0.00,CLR,,0.00,WeatherDisplay:10.37,2013-03-27 11:42:00,
2013-03-27 07:47:00,39.0,24.2,29.85,West,270,3.7,3.7,55,0.00,CLR,,0.00,WeatherDisplay:10.37,2013-03-27 11:47:00,
2013-03-27 07:52:00,39.0,24.2,29.86,West,270,3.7,3.7,55,0.00,CLR,,0.00,WeatherDisplay:10.37,2013-03-27 11:52:00,
2013-03-27 07:57:00,39.0,24.2,29.86,West,270,3.7,3.7,55,0.00,CLR,,0.00,WeatherDisplay:10.37,2013-03-27 11:57:00,
2013-03-27 08:03:00,39.0,24.2,29.86,West,270,3.7,3.7,55,0.00,CLR,,0.00,WeatherDisplay:10.37,2013-03-27 12:03:00,
2013-03-27 08:08:00,39.0,24.2,29.86,West,270,3.7,3.7,55,0.00,CLR,,0.00,WeatherDisplay:10.37,2013-03-27 12:08:00,
2013-03-27 08:13:00,39.0,24.2,29.86,West,270,3.7,3.7,55,0.00,CLR,,0.00,WeatherDisplay:10.37,2013-03-27 12:13:00,
2013-03-27 08:18:00,39.0,24.2,29.86,West,270,3.7,3.7,55,0.00,CLR,,0.00,WeatherDisplay:10.37,2013-03-27 12:18:00,
2013-03-27 08:23:00,39.0,24.2,29.86,West,270,3.7,3.7,55,0.00,CLR,,0.00,WeatherDisplay:10.37,2013-03-27 12:23:00,
2013-03-27 08:28:00,39.0,24.2,29.86,West,270,3.7,3.7,55,0.00,CLR,,0.00,WeatherDisplay:10.37,2013-03-27 12:28:00,
2013-03-27 08:33:00,39.0,24.2,29.86,West,270,3.7,3.7,55,0.00,CLR,,0.00,WeatherDisplay:10.37,2013-03-27 12:33:00,
2013-03-27 08:38:00,39.0,24.2,29.87,West,270,3.7,3.7,55,0.00,CLR,,0.00,WeatherDisplay:10.37,2013-03-27 12:38:00,
2013-03-27 08:43:00,39.0,24.2,29.87,West,270,3.7,3.7,55,0.00,CLR,,0.00,WeatherDisplay:10.37,2013-03-27 12:43:00,
2013-03-27 08:48:00,39.0,24.2,29.87,West,270,3.7,3.7,55,0.00,CLR,,0.00,WeatherDisplay:10.37,2013-03-27 12:48:00,
2013-03-27 08:54:00,39.0,24.2,29.87,West,270,3.7,3.7,55,0.00,CLR,,0.00,WeatherDisplay:10.37,2013-03-27 12:54:00,
2013-03-27 08:59:00,39.0,24.2,29.87,West,270,3.7,3.7,55,0.00,CLR,,0.00,WeatherDisplay:10.37,2013-03-27 12:59:00,
2013-03-27 09:04:00,39.0,24.2,29.87,West,270,3.7,3.7,55,0.00,CLR,,0.00,WeatherDisplay:10.37,2013-03-27 13:04:00,
2013-03-27 09:09:00,39.0,24.2,29.87,West,270,3.7,3.7,55,0.00,CLR,,0.00,WeatherDisplay:10.37,2013-03-27 13:09:00,
2013-03-27 09:14:00,39.0,24.2,29.87,West,270,3.7,3.7,55,0.00,CLR,,0.00,WeatherDisplay:10.37,2013-03-27 13:14:00,
2013-03-27 09:19:00,39.0,24.2,29.87,West,270,3.7,3.7,55,0.00,CLR,,0.00,WeatherDisplay:10.37,2013-03-27 13:19:00,
2013-03-27 09:24:00,39.0,24.2,29.87,West,270,3.7,3.7,55,0.00,CLR,,0.00,WeatherDisplay:10.37,2013-03-27 13:24:00,
2013-03-27 09:29:00,39.0,24.2,29.87,West,270,3.7,3.7,55,0.00,CLR,,0.00,WeatherDisplay:10.37,2013-03-27 13:29:00,
2013-03-27 09:34:00,39.0,24.2,29.87,West,270,3.7,3.7,55,0.00,CLR,,0.00,WeatherDisplay:10.37,2013-03-27 13:34:00,
2013-03-27 09:39:00,39.0,24.2,29.88,West,270,3.7,3.7,55,0.00,CLR,,0.00,WeatherDisplay:10.37,2013-03-27 13:39:00,
2013-03-27 09:45:00,39.0,24.2,29.88,West,270,3.7,3.7,55,0.00,CLR,,0.00,WeatherDisplay:10.37,2013-03-27 13:45:00,
2013-03-27 09:50:00,39.0,24.2,29.87,West,270,3.7,3.7,55,0.00,CLR,,0.00,WeatherDisplay:10.37,2013-03-27 13:50:00,
2013-03-27 09:55:00,39.0,24.2,29.87,West,270,3.7,3.7,55,0.00,CLR,,0.00,WeatherDisplay:10.37,2013-03-27 13:55:00,
2013-03-27 10:00:00,39.0,24.2,29.87,West,270,3.7,3.7,55,0.00,CLR,,0.00,WeatherDisplay:10.37,2013-03-27 14:00:00,
2013-03-27 10:05:00,39.0,24.2,29.87,West,270,3.7,3.7,55,0.00,CLR,,0.00,WeatherDisplay:10.37,2013-03-27 14:05:00,
2013-03-27 10:10:00,39.0,24.2,29.87,West,270,3.7,3.7,55,0.00,CLR,,0.00,WeatherDisplay:10.37,2013-03-27 14:10:00,
2013-03-27 10:15:00,39.0,24.2,29.87,West,270,3.7,3.7,55,0.00,CLR,,0.00,WeatherDisplay:10.37,2013-03-27 14:15:00,
2013-03-27 10:20:00,39.0,24.2,29.87,West,270,3.7,3.7,55,0.00,CLR,,0.00,WeatherDisplay:10.37,2013-03-27 14:20:00,
2013-03-27 10:25:00,39.0,24.2,29.87,West,270,3.7,3.7,55,0.00,CLR,,0.00,WeatherDisplay:10.37,2013-03-27 14:25:00,
2013-03-27 10:31:00,39.0,24.2,29.87,West,270,3.7,3.7,55,0.00,CLR,,0.00,WeatherDisplay:10.37,2013-03-27 14:31:00,
2013-03-27 10:36:00,39.0,24.2,29.87,West,270,3.7,3.7,55,0.00,CLR,,0.00,WeatherDisplay:10.37,2013-03-27 14:36:00,
2013-03-27 10:41:00,39.0,24.2,29.86,West,270,3.7,3.7,55,0.00,CLR,,0.00,WeatherDisplay:10.37,2013-03-27 14:41:00,
2013-03-27 10:46:00,39.0,24.2,29.86,West,270,3.7,3.7,55,0.00,CLR,,0.00,WeatherDisplay:10.37,2013-03-27 14:46:00,
2013-03-27 10:51:00,39.0,24.2,29.86,West,270,3.7,3.7,55,0.00,CLR,,0.00,WeatherDisplay:10.37,2013-03-27 14:51:00,
2013-03-27 10:57:00,39.0,24.2,29.86,West,270,3.7,3.7,55,0.00,CLR,,0.00,WeatherDisplay:10.37,2013-03-27 14:57:00,
2013-03-27 11:02:00,39.0,24.2,29.86,West,270,3.7,3.7,55,0.00,CLR,,0.00,WeatherDisplay:10.37,2013-03-27 15:02:00,
2013-03-27 11:07:00,47.7,29.5,29.86,NNW,338,9.4,9.4,49,0.00,CLR,,0.00,WeatherDisplay:10.37,2013-03-27 15:07:00,
2013-03-27 11:12:00,47.8,29.5,29.86,NW,315,6.3,6.3,49,0.00,CLR,,0.00,WeatherDisplay:10.37,2013-03-27 15:12:00,
2013-03-27 11:17:00,48.4,29.6,29.86,SW,225,9.2,9.2,48,0.00,CLR,,0.00,WeatherDisplay:10.37,2013-03-27 15:17:00,
2013-03-27 11:22:00,48.2,29.4,29.86,West,270,9.2,9.2,48,0.00,CLR,,0.00,WeatherDisplay:10.37,2013-03-27 15:22:00,
2013-03-27 11:27:00,48.7,29.4,29.86,NNE,22,8.1,8.1,47,0.00,CLR,,0.00,WeatherDisplay:10.37,2013-03-27 15:27:00,
2013-03-27 11:32:00,48.4,29.1,29.86,West,270,6.9,6.9,47,0.00,CLR,,0.00,WeatherDisplay:10.37,2013-03-27 15:32:00,
2013-03-27 11:37:00,49.5,29.6,29.86,NNW,338,8.8,8.8,46,0.00,CLR,,0.00,WeatherDisplay:10.37,2013-03-27 15:37:00,
2013-03-27 11:43:00,49.5,29.0,29.86,WNW,292,5.8,5.8,45,0.00,CLR,,0.00,WeatherDisplay:10.37,2013-03-27 15:43:00,
2013-03-27 11:48:00,50.5,29.4,29.86,WNW,292,6.9,6.9,44,0.00,CLR,,0.00,WeatherDisplay:10.37,2013-03-27 15:48:00,
2013-03-27 11:53:00,49.5,28.5,29.86,North,360,8.1,8.1,44,0.00,CLR,,0.00,WeatherDisplay:10.37,2013-03-27 15:53:00,
2013-03-27 11:58:00,50.2,29.7,29.86,NNW,338,9.9,9.9,45,0.00,CLR,,0.00,WeatherDisplay:10.37,2013-03-27 15:58:00,
2013-03-27 12:03:00,49.5,28.5,29.85,NW,315,8.1,8.1,44,0.00,CLR,,0.00,WeatherDisplay:10.37,2013-03-27 16:03:00,
2013-03-27 12:08:00,50.0,28.4,29.85,NNW,338,6.9,6.9,43,0.00,CLR,,0.00,WeatherDisplay:10.37,2013-03-27 16:08:00,
2013-03-27 12:13:00,49.6,28.0,29.85,WNW,292,4.7,4.7,43,0.00,CLR,,0.00,WeatherDisplay:10.37,2013-03-27 16:13:00,
2013-03-27 12:18:00,51.1,27.6,29.85,WNW,292,5.8,5.8,40,0.00,CLR,,0.00,WeatherDisplay:10.37,2013-03-27 16:18:00,
2013-03-27 12:23:00,51.3,27.8,29.85,WNW,292,5.8,5.9,40,0.00,CLR,,0.00,WeatherDisplay:10.37,2013-03-27 16:23:00,
2013-03-27 12:28:00,50.5,27.0,29.85,South,180,5.8,5.8,40,0.00,CLR,,0.00,WeatherDisplay:10.37,2013-03-27 16:28:00,
2013-03-27 12:34:00,49.8,26.4,29.85,North,360,7.8,7.8,40,0.00,CLR,,0.00,WeatherDisplay:10.37,2013-03-27 16:34:00,
2013-03-27 12:39:00,50.4,25.7,29.84,West,270,6.9,6.9,38,0.00,CLR,,0.00,WeatherDisplay:10.37,2013-03-27 16:39:00,
2013-03-27 12:44:00,51.4,24.6,29.84,NNE,22,5.8,5.8,35,0.00,CLR,,0.00,WeatherDisplay:10.37,2013-03-27 16:44:00,
2013-03-27 12:49:00,51.4,23.9,29.84,West,270,8.1,8.1,34,0.00,CLR,,0.00,WeatherDisplay:10.37,2013-03-27 16:49:00,
2013-03-27 12:54:00,51.8,24.3,29.84,NNE,22,10.4,10.4,34,0.00,CLR,,0.00,WeatherDisplay:10.37,2013-03-27 16:54:00,
2013-03-27 12:59:00,51.1,24.4,29.84,West,270,8.1,8.1,35,0.00,CLR,,0.00,WeatherDisplay:10.37,2013-03-27 16:59:00,
2013-03-27 13:04:00,50.5,23.8,29.84,WNW,292,9.4,9.4,35,0.00,CLR,,0.00,WeatherDisplay:10.37,2013-03-27 17:04:00,
2013-03-27 13:09:00,50.7,24.0,29.84,West,270,6.9,6.9,35,0.00,CLR,,0.00,WeatherDisplay:10.37,2013-03-27 17:09:00,
2013-03-27 13:14:00,50.9,23.5,29.84,NNW,338,10.4,10.4,34,0.00,CLR,,0.00,WeatherDisplay:10.37,2013-03-27 17:14:00,
2013-03-27 13:19:00,50.5,23.1,29.84,NW,315,8.1,8.1,34,0.00,CLR,,0.00,WeatherDisplay:10.37,2013-03-27 17:19:00,
2013-03-27 13:25:00,50.9,23.5,29.84,West,270,9.2,9.2,34,0.00,CLR,,0.00,WeatherDisplay:10.37,2013-03-27 17:25:00,
2013-03-27 13:30:00,50.7,23.3,29.83,NW,315,8.1,8.1,34,0.00,CLR,,0.00,WeatherDisplay:10.37,2013-03-27 17:30:00,
2013-03-27 13:35:00,50.9,23.5,29.83,NNW,338,9.4,9.4,34,0.00,CLR,,0.00,WeatherDisplay:10.37,2013-03-27 17:35:00,
2013-03-27 13:40:00,50.2,24.2,29.84,NW,315,10.9,10.9,36,0.00,CLR,,0.00,WeatherDisplay:10.37,2013-03-27 17:40:00,
2013-03-27 13:45:00,49.5,24.3,29.84,NNW,338,6.3,6.3,37,0.00,CLR,,0.00,WeatherDisplay:10.37,2013-03-27 17:45:00,
2013-03-27 13:50:00,49.6,25.6,29.84,WNW,292,4.7,4.7,39,0.00,CLR,,0.00,WeatherDisplay:10.37,2013-03-27 17:50:00,
2013-03-27 13:55:00,50.4,25.7,29.84,North,360,3.5,3.5,38,0.00,CLR,,0.00,WeatherDisplay:10.37,2013-03-27 17:55:00,
2013-03-27 14:00:00,51.1,25.0,29.83,ENE,68,2.3,2.3,36,0.00,CLR,,0.00,WeatherDisplay:10.37,2013-03-27 18:00:00,
2013-03-27 14:05:00,50.7,24.7,29.83,ENE,68,5.8,5.8,36,0.00,CLR,,0.00,WeatherDisplay:10.37,2013-03-27 18:05:00,
2013-03-27 14:10:00,50.5,23.1,29.83,NW,315,5.3,5.3,34,0.00,CLR,,0.00,WeatherDisplay:10.37,2013-03-27 18:10:00,
2013-03-27 14:16:00,50.7,23.3,29.83,West,270,5.8,5.8,34,0.00,CLR,,0.00,WeatherDisplay:10.37,2013-03-27 18:16:00,
2013-03-27 14:21:00,50.7,24.7,29.83,WNW,292,9.2,9.2,36,0.00,CLR,,0.00,WeatherDisplay:10.37,2013-03-27 18:21:00,
2013-03-27 14:26:00,50.4,24.4,29.83,West,270,5.8,5.8,36,0.00,CLR,,0.00,WeatherDisplay:10.37,2013-03-27 18:26:00,
2013-03-27 14:32:00,51.1,25.0,29.83,WNW,292,11.5,11.5,36,0.00,CLR,,0.00,WeatherDisplay:10.37,2013-03-27 18:32:00,
2013-03-27 14:37:00,52.0,24.5,29.83,ENE,68,8.3,8.3,34,0.00,CLR,,0.00,WeatherDisplay:10.37,2013-03-27 18:37:00,
2013-03-27 14:42:00,52.7,25.1,29.82,SW,225,8.1,8.1,34,0.00,CLR,,0.00,WeatherDisplay:10.37,2013-03-27 18:42:00,
2013-03-27 14:47:00,52.9,24.5,29.82,NW,315,9.2,9.2,33,0.00,CLR,,0.00,WeatherDisplay:10.37,2013-03-27 18:47:00,
2013-03-27 14:53:00,52.3,24.0,29.82,West,270,6.9,6.9,33,0.00,CLR,,0.00,WeatherDisplay:10.37,2013-03-27 18:53:00,
2013-03-27 14:58:00,52.2,24.6,29.82,NW,315,8.1,8.1,34,0.00,CLR,,0.00,WeatherDisplay:10.37,2013-03-27 18:58:00,
2013-03-27 15:03:00,51.6,24.1,29.82,NW,315,6.9,6.9,34,0.00,CLR,,0.00,WeatherDisplay:10.37,2013-03-27 19:03:00,
2013-03-27 15:08:00,52.2,24.6,29.82,WNW,292,6.9,6.9,34,0.00,CLR,,0.00,WeatherDisplay:10.37,2013-03-27 19:08:00,
2013-03-27 15:13:00,52.7,24.4,29.82,NW,315,6.9,6.9,33,0.00,CLR,,0.00,WeatherDisplay:10.37,2013-03-27 19:13:00,
2013-03-27 15:18:00,52.7,24.4,29.82,NW,315,6.8,6.8,33,0.00,CLR,,0.00,WeatherDisplay:10.37,2013-03-27 19:18:00,
2013-03-27 15:23:00,54.0,24.0,29.82,NNW,338,8.8,8.8,31,0.00,CLR,,0.00,WeatherDisplay:10.37,2013-03-27 19:23:00,
2013-03-27 15:28:00,54.0,24.0,29.81,WSW,248,6.9,6.9,31,0.00,CLR,,0.00,WeatherDisplay:10.37,2013-03-27 19:28:00,
2013-03-27 15:34:00,53.8,23.8,29.81,WNW,292,9.2,9.2,31,0.00,CLR,,0.00,WeatherDisplay:10.37,2013-03-27 19:34:00,
2013-03-27 15:39:00,52.7,25.1,29.82,NNW,338,8.8,8.8,34,0.00,CLR,,0.00,WeatherDisplay:10.37,2013-03-27 19:39:00,
2013-03-27 15:44:00,53.1,24.7,29.82,NNW,338,10.4,10.4,33,0.00,CLR,,0.00,WeatherDisplay:10.37,2013-03-27 19:44:00,
2013-03-27 15:49:00,53.6,23.7,29.82,North,360,9.4,9.4,31,0.00,CLR,,0.00,WeatherDisplay:10.37,2013-03-27 19:49:00,
2013-03-27 15:54:00,54.7,23.8,29.82,NW,315,10.4,10.4,30,0.00,CLR,,0.00,WeatherDisplay:10.37,2013-03-27 19:54:00,
2013-03-27 15:59:00,53.6,22.1,29.82,NNW,338,10.4,10.4,29,0.00,CLR,,0.00,WeatherDisplay:10.37,2013-03-27 19:59:00,
2013-03-27 16:04:00,53.8,22.2,29.82,WNW,292,10.4,10.4,29,0.00,CLR,,0.00,WeatherDisplay:10.37,2013-03-27 20:04:00,
2013-03-27 16:09:00,54.5,22.0,29.82,NNW,338,11.5,11.5,28,0.00,CLR,,0.00,WeatherDisplay:10.37,2013-03-27 20:09:00,
2013-03-27 16:14:00,54.1,21.7,29.81,WSW,248,8.1,8.1,28,0.00,CLR,,0.00,WeatherDisplay:10.37,2013-03-27 20:14:00,
2013-03-27 16:19:00,54.7,22.2,29.81,West,270,10.4,10.4,28,0.00,CLR,,0.00,WeatherDisplay:10.37,2013-03-27 20:19:00,
2013-03-27 16:25:00,54.1,22.5,29.81,North,360,6.3,6.3,29,0.00,CLR,,0.00,WeatherDisplay:10.37,2013-03-27 20:25:00,
2013-03-27 16:30:00,54.5,23.7,29.81,East,90,8.3,8.3,30,0.00,CLR,,0.00,WeatherDisplay:10.37,2013-03-27 20:30:00,
2013-03-27 16:35:00,52.9,23.0,29.81,NW,315,8.1,8.1,31,0.00,CLR,,0.00,WeatherDisplay:10.37,2013-03-27 20:35:00,
2013-03-27 16:40:00,52.9,23.0,29.81,West,270,8.8,8.8,31,0.00,CLR,,0.00,WeatherDisplay:10.37,2013-03-27 20:40:00,
2013-03-27 16:45:00,53.2,23.3,29.81,WNW,292,6.9,6.9,31,0.00,CLR,,0.00,WeatherDisplay:10.37,2013-03-27 20:45:00,
2013-03-27 16:50:00,52.9,23.8,29.82,NW,315,10.4,10.4,32,0.00,CLR,,0.00,WeatherDisplay:10.37,2013-03-27 20:50:00,
2013-03-27 16:55:00,52.2,23.2,29.82,ENE,68,9.2,9.2,32,0.00,CLR,,0.00,WeatherDisplay:10.37,2013-03-27 20:55:00,
2013-03-27 17:00:00,52.7,23.6,29.82,WNW,292,5.8,5.8,32,0.00,CLR,,0.00,WeatherDisplay:10.37,2013-03-27 21:00:00,
2013-03-27 17:05:00,54.0,24.0,29.82,West,270,6.9,6.9,31,0.00,CLR,,0.00,WeatherDisplay:10.37,2013-03-27 21:05:00,
2013-03-27 17:10:00,54.7,24.6,29.82,WNW,292,7.3,7.3,31,0.00,CLR,,0.00,WeatherDisplay:10.37,2013-03-27 21:10:00,
2013-03-27 17:16:00,55.2,24.3,29.82,NW,315,9.2,9.2,30,0.00,CLR,,0.00,WeatherDisplay:10.37,2013-03-27 21:16:00,
2013-03-27 17:21:00,53.8,24.6,29.82,WNW,292,10.4,10.4,32,0.00,CLR,,0.00,WeatherDisplay:10.37,2013-03-27 21:21:00,
2013-03-27 17:26:00,52.5,24.2,29.82,South,180,8.1,8.1,33,0.00,CLR,,0.00,WeatherDisplay:10.37,2013-03-27 21:26:00,
2013-03-27 17:31:00,52.3,24.0,29.82,West,270,8.1,8.1,33,0.00,CLR,,0.00,WeatherDisplay:10.37,2013-03-27 21:31:00,
2013-03-27 17:36:00,52.0,24.5,29.82,WNW,292,11.5,11.5,34,0.00,CLR,,0.00,WeatherDisplay:10.37,2013-03-27 21:36:00,
2013-03-27 17:41:00,52.3,24.7,29.82,WSW,248,8.3,8.3,34,0.00,CLR,,0.00,WeatherDisplay:10.37,2013-03-27 21:41:00,
2013-03-27 17:46:00,52.0,25.2,29.82,WNW,292,10.4,10.4,35,0.00,CLR,,0.00,WeatherDisplay:10.37,2013-03-27 21:46:00,
2013-03-27 17:52:00,52.0,25.2,29.83,WSW,248,9.2,9.2,35,0.00,CLR,,0.00,WeatherDisplay:10.37,2013-03-27 21:52:00,
2013-03-27 17:57:00,53.6,25.9,29.83,North,360,7.3,7.3,34,0.00,CLR,,0.00,WeatherDisplay:10.37,2013-03-27 21:57:00,
2013-03-27 18:02:00,54.0,25.5,29.83,NNW,338,11.5,11.5,33,0.00,CLR,,0.00,WeatherDisplay:10.37,2013-03-27 22:02:00,
2013-03-27 18:07:00,53.4,25.0,29.83,WNW,292,11.5,11.5,33,0.00,CLR,,0.00,WeatherDisplay:10.37,2013-03-27 22:07:00,
2013-03-27 18:13:00,53.6,25.2,29.83,NW,315,10.4,10.4,33,0.00,CLR,,0.00,WeatherDisplay:10.37,2013-03-27 22:13:00,
2013-03-27 18:18:00,53.1,23.2,29.83,NW,315,11.5,11.5,31,0.00,CLR,,0.00,WeatherDisplay:10.37,2013-03-27 22:18:00,
2013-03-27 18:23:00,53.2,22.5,29.83,West,270,10.4,10.4,30,0.00,CLR,,0.00,WeatherDisplay:10.37,2013-03-27 22:23:00,
2013-03-27 18:28:00,53.2,22.5,29.83,NNW,338,8.1,8.1,30,0.00,CLR,,0.00,WeatherDisplay:10.37,2013-03-27 22:28:00,
2013-03-27 18:33:00,53.1,22.4,29.83,NW,315,11.5,11.5,30,0.00,CLR,,0.00,WeatherDisplay:10.37,2013-03-27 22:33:00,
2013-03-27 18:38:00,52.9,23.0,29.84,NNW,338,13.8,13.8,31,0.00,CLR,,0.00,WeatherDisplay:10.37,2013-03-27 22:38:00,
2013-03-27 18:43:00,52.2,23.9,29.84,NNW,338,10.4,10.4,33,0.00,CLR,,0.00,WeatherDisplay:10.37,2013-03-27 22:43:00,
2013-03-27 18:48:00,51.3,23.8,29.84,NNW,338,10.4,10.4,34,0.00,CLR,,0.00,WeatherDisplay:10.37,2013-03-27 22:48:00,
2013-03-27 18:53:00,50.9,24.2,29.84,NNE,22,8.1,8.1,35,0.00,CLR,,0.00,WeatherDisplay:10.37,2013-03-27 22:53:00,
2013-03-27 18:58:00,50.4,25.1,29.84,NNW,338,11.5,11.5,37,0.00,CLR,,0.00,WeatherDisplay:10.37,2013-03-27 22:58:00,
2013-03-27 19:04:00,50.0,24.7,29.85,NW,315,10.4,10.4,37,0.00,CLR,,0.00,WeatherDisplay:10.37,2013-03-27 23:04:00,
2013-03-27 19:09:00,49.8,23.9,29.85,WNW,292,8.1,8.1,36,0.00,CLR,,0.00,WeatherDisplay:10.37,2013-03-27 23:09:00,
2013-03-27 19:14:00,49.6,23.7,29.85,NNW,338,11.5,11.5,36,0.00,CLR,,0.00,WeatherDisplay:10.37,2013-03-27 23:14:00,
2013-03-27 19:19:00,49.5,23.6,29.85,North,360,9.4,9.4,36,0.00,CLR,,0.00,WeatherDisplay:10.37,2013-03-27 23:19:00,
2013-03-27 19:24:00,49.3,23.4,29.85,NE,45,6.9,6.9,36,0.00,CLR,,0.00,WeatherDisplay:10.37,2013-03-27 23:24:00,
2013-03-27 19:29:00,49.3,24.1,29.86,NW,315,6.9,6.9,37,0.00,CLR,,0.00,WeatherDisplay:10.37,2013-03-27 23:29:00,
2013-03-27 19:34:00,49.1,23.9,29.86,WNW,292,9.2,9.2,37,0.00,CLR,,0.00,WeatherDisplay:10.37,2013-03-27 23:34:00,
2013-03-27 19:39:00,48.9,24.4,29.86,West,270,8.1,8.1,38,0.00,CLR,,0.00,WeatherDisplay:10.37,2013-03-27 23:39:00,
2013-03-27 19:44:00,48.9,24.4,29.86,WNW,292,5.8,5.8,38,0.00,CLR,,0.00,WeatherDisplay:10.37,2013-03-27 23:44:00,
2013-03-27 19:49:00,48.9,24.4,29.87,West,270,9.2,9.2,38,0.00,CLR,,0.00,WeatherDisplay:10.37,2013-03-27 23:49:00,
2013-03-27 19:55:00,48.9,26.2,29.87,WNW,292,9.2,9.2,41,0.00,CLR,,0.00,WeatherDisplay:10.37,2013-03-27 23:55:00,
2013-03-27 20:00:00,48.7,26.6,29.87,SW,225,5.8,6.7,42,0.00,CLR,,0.00,WeatherDisplay:10.37,2013-03-28 00:00:00,
2013-03-27 20:05:00,48.2,28.4,29.87,NW,315,13.8,13.8,46,0.00,CLR,,0.00,WeatherDisplay:10.37,2013-03-28 00:05:00,
2013-03-27 20:10:00,47.5,30.3,29.87,NW,315,13.8,13.8,51,0.00,CLR,,0.00,WeatherDisplay:10.37,2013-03-28 00:10:00,
2013-03-27 20:15:00,46.8,30.6,29.89,NNE,22,9.2,9.2,53,0.00,CLR,,0.00,WeatherDisplay:10.37,2013-03-28 00:15:00,
2013-03-27 20:20:00,46.6,30.8,29.89,SE,135,6.9,6.9,54,0.00,CLR,,0.00,WeatherDisplay:10.37,2013-03-28 00:20:00,
2013-03-27 20:25:00,46.2,31.8,29.89,SE,135,10.4,10.4,57,0.00,CLR,,0.00,WeatherDisplay:10.37,2013-03-28 00:25:00,
2013-03-27 20:30:00,46.0,31.6,29.89,NNW,338,5.8,5.8,57,0.00,CLR,,0.00,WeatherDisplay:10.37,2013-03-28 00:30:00,
2013-03-27 20:35:00,46.0,32.0,29.89,NNW,338,6.9,6.9,58,0.00,CLR,,0.00,WeatherDisplay:10.37,2013-03-28 00:35:00,
2013-03-27 20:40:00,45.9,31.9,29.90,NW,315,9.2,9.2,58,0.00,CLR,,0.00,WeatherDisplay:10.37,2013-03-28 00:40:00,
2013-03-27 20:46:00,45.9,31.1,29.90,NNW,338,8.1,8.1,56,0.00,CLR,,0.00,WeatherDisplay:10.37,2013-03-28 00:46:00,
2013-03-27 20:51:00,45.9,30.6,29.90,NNW,338,10.4,10.4,55,0.00,CLR,,0.00,WeatherDisplay:10.37,2013-03-28 00:51:00,
2013-03-27 20:56:00,45.7,30.4,29.90,North,360,10.4,10.4,55,0.00,CLR,,0.00,WeatherDisplay:10.37,2013-03-28 00:56:00,
2013-03-27 21:01:00,45.5,30.7,29.90,West,270,8.3,8.3,56,0.00,CLR,,0.00,WeatherDisplay:10.37,2013-03-28 01:01:00,
2013-03-27 21:06:00,45.3,30.5,29.90,North,360,6.9,6.9,56,0.00,CLR,,0.00,WeatherDisplay:10.37,2013-03-28 01:06:00,
2013-03-27 21:11:00,45.1,30.8,29.90,NNW,338,7.8,7.8,57,0.00,CLR,,0.00,WeatherDisplay:10.37,2013-03-28 01:11:00,
2013-03-27 21:16:00,45.0,30.7,29.90,NW,315,10.4,10.4,57,0.00,CLR,,0.00,WeatherDisplay:10.37,2013-03-28 01:16:00,
2013-03-27 21:22:00,45.0,30.7,29.90,SW,225,8.1,8.1,57,0.00,CLR,,0.00,WeatherDisplay:10.37,2013-03-28 01:22:00,
2013-03-27 21:27:00,44.8,30.5,29.91,NNW,338,13.8,13.8,57,0.00,CLR,,0.00,WeatherDisplay:10.37,2013-03-28 01:27:00,
2013-03-27 21:32:00,44.6,30.3,29.91,NW,315,8.1,8.1,57,0.00,CLR,,0.00,WeatherDisplay:10.37,2013-03-28 01:32:00,
2013-03-27 21:37:00,44.6,30.3,29.91,NW,315,9.2,9.2,57,0.00,CLR,,0.00,WeatherDisplay:10.37,2013-03-28 01:37:00,
2013-03-27 21:42:00,44.6,30.3,29.91,NW,315,8.1,8.1,57,0.00,CLR,,0.00,WeatherDisplay:10.37,2013-03-28 01:42:00,
2013-03-27 21:47:00,44.4,30.1,29.91,NNW,338,6.9,6.9,57,0.00,CLR,,0.00,WeatherDisplay:10.37,2013-03-28 01:47:00,
2013-03-27 21:53:00,44.4,30.1,29.91,NW,315,11.5,11.5,57,0.00,CLR,,0.00,WeatherDisplay:10.37,2013-03-28 01:53:00,
2013-03-27 21:58:00,44.4,29.7,29.91,ESE,112,9.2,9.2,56,0.00,CLR,,0.00,WeatherDisplay:10.37,2013-03-28 01:58:00,
2013-03-27 22:03:00,44.2,29.5,29.91,North,360,10.4,10.4,56,0.00,CLR,,0.00,WeatherDisplay:10.37,2013-03-28 02:03:00,
2013-03-27 22:08:00,44.2,29.5,29.91,WNW,292,12.4,12.4,56,0.00,CLR,,0.00,WeatherDisplay:10.37,2013-03-28 02:08:00,
2013-03-27 22:13:00,44.2,29.5,29.91,WNW,292,12.7,12.7,56,0.00,CLR,,0.00,WeatherDisplay:10.37,2013-03-28 02:13:00,
2013-03-27 22:18:00,44.1,29.4,29.90,West,270,12.4,12.4,56,0.00,CLR,,0.00,WeatherDisplay:10.37,2013-03-28 02:18:00,
2013-03-27 22:23:00,44.1,29.4,29.90,NW,315,15.0,15.0,56,0.00,CLR,,0.00,WeatherDisplay:10.37,2013-03-28 02:23:00,
2013-03-27 22:28:00,43.9,29.6,29.91,NNW,338,12.7,12.7,57,0.00,CLR,,0.00,WeatherDisplay:10.37,2013-03-28 02:28:00,
2013-03-27 22:33:00,43.9,29.6,29.91,NW,315,6.9,7.8,57,0.00,CLR,,0.00,WeatherDisplay:10.37,2013-03-28 02:33:00,
2013-03-27 22:38:00,43.7,29.5,29.91,NW,315,8.3,8.3,57,0.00,CLR,,0.00,WeatherDisplay:10.37,2013-03-28 02:38:00,
2013-03-27 22:44:00,43.7,29.5,29.91,NW,315,6.3,6.3,57,0.00,CLR,,0.00,WeatherDisplay:10.37,2013-03-28 02:44:00,
2013-03-27 22:49:00,43.5,29.7,29.91,NW,315,6.9,6.9,58,0.00,CLR,,0.00,WeatherDisplay:10.37,2013-03-28 02:49:00,
2013-03-27 22:54:00,43.3,29.5,29.91,WNW,292,11.9,11.9,58,0.00,CLR,,0.00,WeatherDisplay:10.37,2013-03-28 02:54:00,
2013-03-27 22:59:00,43.3,29.5,29.91,West,270,12.7,12.7,58,0.00,CLR,,0.00,WeatherDisplay:10.37,2013-03-28 02:59:00,
2013-03-27 23:04:00,43.3,29.5,29.91,NNW,338,9.2,9.2,58,0.00,CLR,,0.00,WeatherDisplay:10.37,2013-03-28 03:04:00,
2013-03-27 23:09:00,43.2,29.8,29.91,West,270,5.8,5.8,59,0.00,CLR,,0.00,WeatherDisplay:10.37,2013-03-28 03:09:00,
2013-03-27 23:14:00,43.0,30.1,29.91,NNW,338,8.8,8.8,60,0.00,CLR,,0.00,WeatherDisplay:10.37,2013-03-28 03:14:00,
2013-03-27 23:19:00,43.0,30.1,29.91,West,270,9.2,9.2,60,0.00,CLR,,0.00,WeatherDisplay:10.37,2013-03-28 03:19:00,
2013-03-27 23:24:00,43.0,30.1,29.91,NNW,338,10.4,10.4,60,0.00,CLR,,0.00,WeatherDisplay:10.37,2013-03-28 03:24:00,
2013-03-27 23:29:00,42.8,30.3,29.91,NNW,338,4.7,4.7,61,0.00,CLR,,0.00,WeatherDisplay:10.37,2013-03-28 03:29:00,
2013-03-27 23:35:00,42.6,30.1,29.91,West,270,5.8,5.8,61,0.00,CLR,,0.00,WeatherDisplay:10.37,2013-03-28 03:35:00,
2013-03-27 23:40:00,42.4,30.3,29.92,WNW,292,10.4,10.4,62,0.00,CLR,,0.00,WeatherDisplay:10.37,2013-03-28 03:40:00,
2013-03-27 23:45:00,42.4,30.3,29.92,NW,315,7.8,7.8,62,0.00,CLR,,0.00,WeatherDisplay:10.37,2013-03-28 03:45:00,
2013-03-27 23:50:00,42.3,30.2,29.92,North,360,10.4,10.4,62,0.00,CLR,,0.00,WeatherDisplay:10.37,2013-03-28 03:50:00,
2013-03-27 23:55:00,42.3,30.2,29.92,WNW,292,10.4,10.4,62,0.00,CLR,,0.00,WeatherDisplay:10.37,2013-03-28 03:55:00,